QPF
0.00 0.00 0.00 0.00 0.00 0.00 0.00 0.00 0.00 0.00 0.00 0.00 0.00 0.00 0.00 0.00 0.00 0.00 0.00 0.00 0.00 0.00 0.00 0.00 0.00 0.00 0.00 0.00 0.00 0.00 0.00 0.00 0.00 0.00 0.00 0.00 0.00 0.00 0.00 0.00 0.00 0.00
0.00 0.00 0.00 0.00 0.00 0.00 0.00 0.00 0.00 0.00 0.00 0.00 0.00 0.00 0.00 0.00 0.00 0.00 0.00 0.00 0.00 0.00 0.00 0.00 0.00 0.00 0.00 0.00 0.00 0.00 0.00 0.00 0.00 0.00 0.00 0.00 0.00 0.00 0.00 0.00 0.00 0.00
0.00 0.00 0.00 0.00 0.00 0.00 0.00 0.00 0.00 0.00 0.00 0.00 0.00 0.00 0.00 0.00 0.00 0.00 0.00 0.00 0.00 0.00 0.00 0.00 0.00 0.00 0.00 0.00 0.00 0.00 0.00 0.00 0.00 0.00 0.00 0.00 0.00 0.00 0.00 0.00 0.00 0.00
0.00 0.00 0.00 0.00 0.00 0.00 0.00 0.00 0.00 0.00 0.00 0.00 0.00 0.00 0.00 0.00 0.00 0.00 0.00 0.00 0.00 0.00 0.00 0.00 0.00 0.00 0.00 0.00 0.00 0.00 0.00 0.00 0.00 0.00 0.00 0.00 0.00 0.00 0.00 0.00 0.00 0.00
0.00 0.00 0.00 0.00 0.00 0.00 0.00 0.00 0.00 0.00 0.00 0.00 0.00 0.00 0.00 0.00 0.00 0.00 0.00 0.00 0.00 0.00 0.00 0.00 0.00 0.00 0.00 0.00 0.00 0.00 0.00 0.00 0.00 0.00 0.00 0.00 0.00 0.00 0.00 0.00 0.00 0.00
0.00 0.00 0.00 0.00 0.00 0.00 0.00 0.00 0.00 0.00 0.00 0.00 0.00 0.00 0.00 0.00 0.00 0.00 0.00 0.00 0.00 0.00 0.00 0.00 0.00 0.00 0.00 0.00 0.00 0.00 0.00 0.00 0.00 0.00 0.00 0.00 0.00 0.00 0.00 0.00 0.00 0.00
0.00 0.00 0.00 0.00 0.00 0.00 0.00 0.00 0.00 0.00 0.00 0.00 0.00 0.00 0.00 0.00 0.00 0.00 0.00 0.00 0.00 0.00 0.00 0.00 0.00 0.00 0.00 0.00 0.00 0.00 0.00 0.00 0.00 0.00 0.00 0.00 0.00 0.00 0.00 0.00 0.00 0.00
0.00 0.00 0.00 0.00 0.00 0.00 0.00 0.00 0.00 0.00 0.00 0.00 0.00 0.00 0.00 0.00 0.00 0.00 0.00 0.00 0.00 0.00 0.00 0.00 0.00 0.00 0.00 0.00 0.00 0.00 0.00 0.00 0.00 0.00 0.00 0.00 0.00 0.00 0.00 0.00 0.00 0.00
0.00 0.00 0.00 0.00 0.00 0.00 0.00 0.00 0.00 0.00 0.00 0.00 0.00 0.00 0.00 0.00 0.00 0.00 0.00 0.00 0.00 0.00 0.00 0.00 0.00 0.00 0.00 0.00 0.00 0.00 0.00 0.00 0.00 0.00 0.00 0.00 0.00 0.00 0.00 0.00 0.00 0.00
0.00 0.00 0.00 0.00 0.00 0.00 0.00 0.00 0.00 0.00 0.00 0.00 0.00 0.00 0.00 0.00 0.00 0.00 0.00 0.00 0.00 0.00 0.00 0.00 0.00 0.00 0.00 0.00 0.00 0.00 0.00 0.00 0.00 0.00 0.00 0.00 0.00 0.00 0.00 0.00 0.00 0.00
0.00 0.00 0.00 0.00 0.00 0.00 0.00 0.00 0.00 0.00 0.00 0.00 0.00 0.00 0.00 0.00 0.00 0.01 0.01 0.00 0.00 0.00 0.00 0.00 0.00 0.00 0.00 0.00 0.00 0.00 0.00 0.00 0.00 0.00 0.00 0.00 0.00 0.00 0.00 0.00 0.00 0.00
0.01 0.01 0.01 0.01 0.01 0.01 0.01 0.00 0.00 0.00 0.00 0.00 0.00 0.00 0.00 0.00 0.00 0.01 0.02 0.01 0.00 0.00 0.00 0.00 0.00 0.00 0.00 0.00 0.00 0.00 0.00 0.00 0.00 0.00 0.00 0.00 0.00 0.00 0.00 0.00 0.00 0.00
0.01 0.01 0.01 0.01 0.01 0.01 0.01 0.01 0.01 0.00 0.00 0.00 0.01 0.01 0.01 0.01 0.01 0.01 0.01 0.02 0.01 0.00 0.00 0.00 0.00 0.00 0.00 0.00 0.00 0.00 0.00 0.00 0.00 0.00 0.00 0.00 0.00 0.00 0.00 0.00 0.00 0.00
0.01 0.01 0.01 0.01 0.01 0.02 0.02 0.02 0.02 0.01 0.01 0.01 0.02 0.02 0.02 0.02 0.02 0.02 0.01 0.01 0.01 0.02 0.01 0.00 0.00 0.00 0.00 0.00 0.00 0.00 0.00 0.00 0.00 0.00 0.00 0.00 0.00 0.00 0.00 0.00 0.00 0.00
0.01 0.01 0.01 0.01 0.02 0.02 0.03 0.03 0.03 0.03 0.03 0.03 0.04 0.04 0.04 0.04 0.03 0.02 0.02 0.01 0.01 0.01 0.01 0.01 0.00 0.00 0.00 0.00 0.00 0.00 0.00 0.00 0.00 0.00 0.00 0.00 0.00 0.00 0.00 0.00 0.00 0.00
0.00 0.01 0.01 0.01 0.01 0.02 0.02 0.02 0.03 0.04 0.04 0.05 0.05 0.05 0.05 0.05 0.05 0.06 0.04 0.01 0.00 0.01 0.01 0.01 0.00 0.00 0.00 0.00 0.00 0.00 0.00 0.00 0.00 0.00 0.00 0.00 0.00 0.00 0.00 0.00 0.00 0.00
0.00 0.00 0.00 0.00 0.01 0.01 0.01 0.02 0.03 0.03 0.02 0.03 0.05 0.05 0.06 0.06 0.06 0.04 0.04 0.03 0.01 0.00 0.00 0.01 0.00 0.00 0.00 0.00 0.00 0.00 0.00 0.00 0.00 0.00 0.00 0.00 0.00 0.00 0.00 0.00 0.00 0.00
0.00 0.00 0.01 0.00 0.00 0.01 0.01 0.01 0.02 0.02 0.02 0.02 0.03 0.03 0.03 0.04 0.04 0.03 0.01 0.01 0.00 0.01 0.00 0.00 0.00 0.00 0.00 0.00 0.00 0.00 0.00 0.00 0.00 0.00 0.00 0.00 0.00 0.00 0.00 0.00 0.00 0.00
0.00 0.00 0.01 0.01 0.00 0.01 0.02 0.02 0.01 0.01 0.02 0.02 0.02 0.02 0.02 0.02 0.02 0.02 0.01 0.00 0.00 0.00 0.00 0.00 0.00 0.00 0.00 0.00 0.00 0.00 0.00 0.00 0.00 0.00 0.00 0.00 0.00 0.00 0.00 0.00 0.00 0.00
0.00 0.00 0.00 0.01 0.00 0.00 0.02 0.02 0.01 0.00 0.01 0.02 0.01 0.02 0.02 0.01 0.01 0.00 0.00 0.00 0.00 0.00 0.00 0.00 0.00 0.00 0.00 0.00 0.00 0.00 0.00 0.00 0.00 0.00 0.00 0.00 0.00 0.00 0.00 0.00 0.00 0.00
0.00 0.00 0.01 0.00 0.01 0.01 0.01 0.01 0.02 0.01 0.01 0.01 0.01 0.01 0.01 0.01 0.01 0.00 0.00 0.00 0.00 0.00 0.00 0.00 0.00 0.00 0.00 0.00 0.00 0.00 0.00 0.00 0.00 0.00 0.00 0.00 0.00 0.00 0.00 0.00 0.00 0.00
0.00 0.00 0.00 0.01 0.00 0.00 0.01 0.00 0.01 0.01 0.01 0.00 0.00 0.01 0.01 0.00 0.00 0.00 0.00 0.00 0.00 0.00 0.00 0.00 0.00 0.00 0.00 0.00 0.00 0.00 0.00 0.00 0.00 0.00 0.00 0.00 0.00 0.00 0.00 0.00 0.00 0.00
0.00 0.00 0.00 0.00 0.00 0.00 0.00 0.00 0.00 0.00 0.00 0.00 0.00 0.00 0.01 0.00 0.00 0.00 0.00 0.00 0.00 0.00 0.00 0.00 0.00 0.00 0.00 0.00 0.00 0.00 0.00 0.00 0.00 0.00 0.00 0.00 0.00 0.00 0.00 0.00 0.00 0.00
0.00 0.00 0.00 0.00 0.00 0.00 0.00 0.00 0.00 0.00 0.00 0.00 0.00 0.00 0.00 0.00 0.00 0.00 0.00 0.00 0.00 0.00 0.00 0.00 0.00 0.00 0.00 0.00 0.00 0.00 0.00 0.00 0.00 0.00 0.00 0.00 0.00 0.00 0.00 0.00 0.00 0.00
0.00 0.00 0.00 0.00 0.00 0.00 0.00 0.00 0.00 0.00 0.00 0.00 0.00 0.00 0.00 0.00 0.00 0.00 0.00 0.00 0.00 0.00 0.00 0.00 0.00 0.00 0.00 0.00 0.00 0.00 0.00 0.00 0.00 0.00 0.00 0.00 0.00 0.00 0.00 0.00 0.00 0.00
0.00 0.00 0.00 0.00 0.00 0.00 0.00 0.00 0.00 0.00 0.00 0.00 0.00 0.00 0.00 0.00 0.00 0.00 0.00 0.00 0.00 0.00 0.00 0.00 0.00 0.00 0.00 0.00 0.00 0.00 0.00 0.00 0.00 0.00 0.00 0.00 0.00 0.00 0.00 0.00 0.00 0.00
MSLP
1013.12 1013.32 1013.56 1013.84 1013.96 1014.08 1014.32 1014.84 1015.24 1015.60 1015.76 1016.08 1016.44 1016.72 1017.04 1017.36 1017.76 1018.16 1018.44 1018.68 1018.92 1019.28 1019.52 1019.76 1020.24 1020.76 1021.00 1021.12 1021.24 1021.40 1021.80 1022.08 1022.64 1022.92 1023.08 1023.16 1023.56 1023.96 1024.12 1024.40 1024.60 1024.48
1012.76 1012.92 1013.20 1013.40 1013.60 1013.72 1013.88 1014.16 1014.60 1014.84 1015.12 1015.32 1015.52 1015.92 1016.32 1016.80 1017.20 1017.56 1018.00 1018.32 1018.64 1019.00 1019.32 1019.64 1020.08 1020.44 1020.64 1020.80 1021.00 1021.32 1021.76 1022.36 1022.92 1023.20 1023.40 1023.68 1023.92 1024.12 1024.40 1024.48 1024.48 1024.52
1012.56 1012.76 1012.92 1013.08 1013.16 1013.28 1013.48 1013.76 1014.04 1014.36 1014.56 1014.72 1015.00 1015.28 1015.72 1016.24 1016.80 1017.16 1017.44 1018.00 1018.60 1019.04 1019.40 1019.68 1019.96 1020.20 1020.40 1020.56 1020.84 1021.48 1022.16 1022.56 1022.92 1023.20 1023.28 1023.52 1023.84 1024.16 1024.28 1024.40 1024.52 1024.64
1012.28 1012.52 1012.72 1012.84 1012.92 1013.04 1013.16 1013.44 1013.72 1014.00 1014.16 1014.44 1014.72 1014.96 1015.28 1015.76 1016.36 1016.88 1017.28 1017.68 1018.28 1018.96 1019.40 1019.60 1019.96 1020.08 1020.24 1020.64 1021.16 1021.76 1022.08 1022.32 1022.60 1022.96 1023.24 1023.64 1023.88 1024.04 1024.24 1024.32 1024.56 1024.76
1012.00 1012.24 1012.52 1012.60 1012.64 1012.76 1012.96 1013.20 1013.48 1013.68 1013.84 1014.08 1014.52 1014.84 1015.20 1015.68 1016.08 1016.60 1017.16 1017.72 1017.96 1018.56 1019.16 1019.44 1019.56 1019.84 1020.12 1020.84 1021.28 1021.72 1021.96 1022.20 1022.68 1022.96 1023.24 1023.56 1023.80 1023.96 1024.12 1024.32 1024.64 1024.88
1011.56 1011.80 1012.04 1012.20 1012.28 1012.52 1012.72 1012.84 1013.20 1013.56 1013.76 1014.08 1014.48 1014.80 1015.04 1015.44 1015.88 1016.44 1017.08 1017.68 1018.04 1018.48 1019.00 1019.28 1019.48 1019.80 1020.20 1020.72 1021.16 1021.44 1021.80 1022.28 1022.56 1022.76 1023.04 1023.36 1023.68 1023.92 1024.12 1024.36 1024.68 1025.00
1011.40 1011.56 1011.76 1011.92 1012.16 1012.28 1012.56 1012.76 1013.16 1013.48 1013.72 1014.04 1014.56 1014.72 1015.00 1015.52 1015.96 1016.32 1016.84 1017.28 1017.84 1018.44 1018.84 1019.24 1019.56 1019.96 1020.16 1020.44 1021.00 1021.48 1021.92 1022.20 1022.52 1022.68 1022.96 1023.28 1023.64 1024.08 1024.28 1024.44 1024.72 1025.04
1011.32 1011.52 1011.76 1012.04 1012.28 1012.40 1012.56 1012.76 1013.08 1013.40 1013.68 1014.16 1014.36 1014.64 1014.96 1015.40 1015.76 1016.28 1016.76 1017.24 1017.72 1018.32 1018.84 1019.16 1019.36 1019.64 1020.08 1020.52 1021.12 1021.64 1021.92 1022.24 1022.44 1022.64 1022.88 1023.28 1023.64 1024.08 1024.32 1024.52 1024.80 1025.24
1011.44 1011.68 1011.88 1012.12 1012.32 1012.44 1012.60 1012.76 1013.00 1013.32 1013.64 1013.96 1014.28 1014.76 1015.04 1015.24 1015.60 1016.16 1016.76 1017.24 1017.68 1018.24 1018.76 1019.20 1019.36 1019.68 1020.08 1020.40 1021.00 1021.40 1021.76 1022.12 1022.32 1022.48 1022.60 1023.00 1023.48 1023.88 1024.24 1024.52 1024.92 1025.32
1011.64 1011.72 1011.88 1012.04 1012.24 1012.36 1012.60 1012.76 1013.00 1013.28 1013.64 1013.96 1014.28 1014.68 1015.04 1015.40 1015.60 1016.04 1016.68 1017.12 1017.72 1018.28 1018.72 1019.12 1019.60 1019.84 1020.04 1020.36 1020.80 1021.24 1021.64 1021.92 1022.16 1022.24 1022.48 1022.80 1023.20 1023.76 1024.16 1024.48 1024.84 1025.28
1011.96 1012.00 1012.00 1012.04 1012.08 1012.28 1012.56 1012.88 1013.12 1013.40 1013.72 1013.96 1014.40 1014.72 1015.00 1015.36 1015.84 1016.24 1016.60 1017.04 1017.52 1018.00 1018.52 1019.08 1019.48 1019.76 1020.00 1020.40 1020.80 1021.16 1021.48 1021.76 1021.88 1022.04 1022.36 1022.76 1023.24 1023.68 1024.04 1024.36 1024.80 1025.12
1012.04 1012.16 1012.16 1012.12 1012.20 1012.40 1012.60 1012.92 1013.20 1013.44 1013.72 1014.04 1014.32 1014.68 1015.16 1015.48 1015.84 1016.40 1016.60 1016.96 1017.28 1017.68 1018.16 1018.68 1019.16 1019.48 1019.80 1020.12 1020.64 1021.12 1021.48 1021.68 1021.80 1022.08 1022.48 1023.00 1023.44 1023.84 1024.16 1024.48 1024.80 1025.16
1011.84 1012.00 1012.16 1012.24 1012.36 1012.52 1012.80 1013.04 1013.24 1013.48 1013.72 1014.08 1014.44 1014.76 1015.12 1015.60 1016.24 1016.48 1016.68 1016.80 1017.16 1017.68 1018.20 1018.56 1018.92 1019.28 1019.60 1020.08 1020.60 1021.00 1021.32 1021.64 1021.92 1022.36 1022.84 1023.32 1023.72 1024.08 1024.44 1024.72 1025.00 1025.24
1011.84 1012.04 1012.16 1012.32 1012.52 1012.76 1013.00 1013.28 1013.52 1013.76 1013.96 1014.28 1014.60 1014.96 1015.36 1015.56 1015.88 1016.52 1016.76 1016.88 1017.28 1017.72 1018.24 1018.56 1018.76 1019.16 1019.52 1020.08 1020.56 1020.88 1021.36 1021.72 1022.00 1022.48 1023.04 1023.56 1024.00 1024.40 1024.72 1025.04 1025.28 1025.48
1012.04 1012.28 1012.44 1012.60 1012.80 1013.00 1013.28 1013.56 1013.80 1014.04 1014.28 1014.56 1014.80 1015.08 1015.44 1015.80 1016.00 1016.08 1016.44 1016.92 1017.44 1017.84 1018.32 1018.76 1018.80 1018.96 1019.36 1019.88 1020.40 1020.96 1021.32 1021.68 1022.08 1022.52 1023.00 1023.56 1024.12 1024.60 1024.96 1025.24 1025.48 1025.68
1012.20 1012.40 1012.56 1012.76 1012.96 1013.16 1013.48 1013.72 1013.96 1014.20 1014.44 1014.72 1015.00 1015.20 1015.48 1015.84 1016.20 1016.48 1016.40 1016.52 1017.12 1017.80 1018.32 1018.80 1018.92 1018.92 1019.24 1019.64 1020.00 1020.44 1021.08 1021.64 1022.16 1022.60 1023.04 1023.52 1024.04 1024.64 1025.08 1025.40 1025.64 1025.92
1012.56 1012.72 1012.88 1012.88 1013.12 1013.36 1013.64 1013.84 1014.12 1014.36 1014.60 1014.84 1015.12 1015.36 1015.56 1015.88 1016.40 1016.48 1016.68 1016.88 1017.04 1017.44 1018.12 1018.72 1018.96 1019.00 1019.16 1019.56 1020.08 1020.52 1020.92 1021.48 1021.96 1022.60 1023.08 1023.52 1024.00 1024.44 1024.96 1025.44 1025.80 1026.12
1012.76 1012.96 1013.08 1013.20 1013.32 1013.44 1013.68 1013.92 1014.20 1014.48 1014.72 1014.96 1015.24 1015.52 1015.80 1016.04 1016.36 1016.64 1016.76 1017.04 1017.16 1017.44 1017.96 1018.44 1018.80 1019.04 1019.20 1019.68 1020.16 1020.64 1020.96 1021.32 1021.88 1022.40 1023.00 1023.48 1023.92 1024.36 1024.84 1025.28 1025.64 1026.04
1012.88 1013.04 1013.24 1013.48 1013.64 1013.80 1013.96 1014.16 1014.36 1014.56 1014.88 1015.08 1015.28 1015.48 1015.80 1016.04 1016.32 1016.68 1016.88 1017.04 1017.12 1017.36 1018.00 1018.52 1018.92 1019.20 1019.32 1019.72 1020.20 1020.64 1021.00 1021.32 1021.84 1022.32 1022.84 1023.36 1023.84 1024.28 1024.72 1025.04 1025.32 1025.72
1012.92 1013.12 1013.32 1013.64 1013.96 1014.20 1014.28 1014.36 1014.44 1014.48 1014.68 1015.00 1015.36 1015.72 1015.92 1016.16 1016.40 1016.64 1016.84 1016.92 1017.04 1017.40 1018.04 1018.56 1019.00 1019.24 1019.40 1019.80 1020.24 1020.68 1021.00 1021.36 1021.84 1022.36 1022.88 1023.36 1023.80 1024.20 1024.52 1024.76 1025.04 1025.40
1012.88 1013.04 1013.32 1013.72 1014.08 1014.36 1014.48 1014.52 1014.56 1014.72 1014.96 1015.20 1015.36 1015.56 1015.84 1016.08 1016.32 1016.64 1016.84 1016.96 1017.28 1017.72 1018.20 1018.72 1019.08 1019.24 1019.48 1019.88 1020.32 1020.72 1021.04 1021.40 1021.96 1022.48 1023.00 1023.48 1023.88 1024.16 1024.32 1024.52 1024.84 1025.20
1012.48 1012.72 1013.08 1013.60 1014.00 1014.32 1014.52 1014.68 1014.84 1015.00 1015.16 1015.40 1015.64 1015.84 1016.00 1016.20 1016.48 1016.52 1016.68 1017.04 1017.44 1017.80 1018.24 1018.68 1019.20 1019.36 1019.56 1019.96 1020.40 1020.76 1021.04 1021.52 1022.04 1022.56 1023.08 1023.56 1023.92 1024.20 1024.36 1024.56 1024.76 1025.04
1012.24 1012.48 1012.92 1013.40 1013.80 1014.16 1014.40 1014.60 1014.88 1015.16 1015.40 1015.60 1015.80 1015.84 1015.96 1016.28 1016.40 1016.52 1016.92 1017.20 1017.52 1017.84 1018.12 1018.68 1019.20 1019.48 1019.64 1019.96 1020.40 1020.68 1021.04 1021.60 1022.12 1022.68 1023.16 1023.60 1023.96 1024.20 1024.40 1024.64 1024.84 1025.00
1012.16 1012.36 1012.72 1013.16 1013.56 1013.84 1014.12 1014.44 1014.72 1015.00 1015.32 1015.52 1015.60 1015.76 1016.08 1016.32 1016.48 1016.84 1017.16 1017.36 1017.48 1017.68 1017.88 1018.36 1019.08 1019.40 1019.60 1019.96 1020.32 1020.60 1020.88 1021.44 1022.00 1022.52 1023.12 1023.56 1023.96 1024.24 1024.48 1024.72 1024.96 1025.12
1012.20 1012.44 1012.72 1013.08 1013.44 1013.68 1013.96 1014.28 1014.64 1014.92 1015.24 1015.60 1015.76 1015.88 1016.04 1016.32 1016.64 1016.96 1017.32 1017.52 1017.72 1017.88 1018.12 1018.40 1018.88 1019.40 1019.68 1019.96 1020.24 1020.52 1020.88 1021.32 1021.80 1022.36 1022.92 1023.44 1023.84 1024.20 1024.52 1024.80 1025.08 1025.24
1012.20 1012.44 1012.76 1013.08 1013.44 1013.76 1014.08 1014.36 1014.68 1015.04 1015.40 1015.64 1015.88 1016.04 1016.28 1016.56 1016.84 1017.04 1017.32 1017.64 1017.96 1018.24 1018.52 1018.68 1019.00 1019.44 1019.72 1019.96 1020.20 1020.52 1020.76 1021.12 1021.60 1022.08 1022.60 1023.16 1023.56 1023.92 1024.36 1024.72 1025.00 1025.12
Thickness
5714 5712 5711 5710 5709 5708 5707 5703 5699 5696 5693 5691 5688 5686 5683 5680 5677 5673 5668 5665 5661 5658 5655 5652 5648 5643 5640 5637 5635 5632 5628 5623 5618 5613 5610 5607 5602 5598 5594 5591 5587 5585
5711 5710 5708 5707 5707 5707 5706 5703 5699 5696 5693 5692 5691 5688 5684 5681 5677 5673 5668 5664 5659 5656 5652 5648 5644 5640 5637 5635 5632 5628 5622 5617 5611 5607 5604 5600 5596 5592 5588 5585 5582 5580
5708 5707 5705 5705 5705 5704 5703 5701 5698 5696 5693 5692 5691 5687 5684 5680 5675 5671 5667 5662 5656 5651 5648 5644 5640 5637 5634 5632 5628 5622 5616 5611 5606 5602 5599 5595 5590 5587 5584 5580 5577 5574
5705 5703 5702 5701 5701 5700 5700 5699 5696 5695 5692 5690 5689 5685 5681 5678 5672 5668 5664 5659 5654 5647 5644 5640 5636 5633 5630 5627 5621 5615 5611 5607 5602 5598 5594 5590 5586 5582 5579 5576 5572 5568
5702 5701 5699 5698 5698 5697 5697 5696 5693 5691 5689 5687 5685 5680 5677 5674 5669 5664 5659 5654 5650 5645 5640 5636 5633 5630 5626 5621 5615 5610 5606 5601 5597 5594 5590 5585 5581 5578 5574 5570 5566 5562
5701 5699 5697 5696 5696 5694 5694 5693 5689 5686 5685 5682 5679 5675 5672 5670 5665 5660 5655 5650 5645 5641 5636 5632 5628 5624 5621 5616 5609 5605 5601 5597 5593 5590 5585 5581 5576 5572 5568 5564 5560 5556
5698 5695 5694 5692 5691 5689 5689 5687 5684 5682 5680 5676 5672 5669 5668 5664 5659 5655 5651 5646 5640 5636 5632 5627 5623 5619 5615 5611 5604 5599 5595 5591 5588 5584 5580 5576 5571 5566 5562 5558 5554 5549
5692 5690 5688 5686 5684 5683 5682 5682 5679 5677 5673 5670 5666 5664 5662 5658 5654 5650 5646 5642 5637 5631 5626 5622 5618 5614 5610 5605 5598 5593 5590 5586 5583 5579 5575 5571 5565 5560 5556 5552 5548 5544
5685 5684 5681 5679 5678 5677 5676 5675 5673 5670 5667 5664 5661 5659 5655 5652 5649 5645 5641 5636 5631 5626 5621 5616 5613 5608 5604 5600 5594 5589 5585 5581 5577 5574 5571 5566 5560 5555 5551 5546 5542 5537
5677 5677 5675 5674 5673 5671 5670 5668 5667 5664 5660 5658 5655 5652 5649 5646 5643 5639 5635 5631 5625 5620 5615 5610 5606 5602 5598 5594 5590 5585 5580 5576 5573 5569 5566 5561 5556 5550 5546 5542 5537 5532
5668 5668 5667 5668 5667 5665 5664 5661 5659 5657 5654 5652 5649 5646 5642 5639 5636 5632 5629 5625 5620 5616 5610 5604 5600 5597 5593 5589 5584 5580 5575 5571 5568 5564 5560 5555 5550 5545 5540 5536 5531 5526
5660 5660 5660 5660 5659 5658 5656 5654 5652 5649 5647 5645 5642 5640 5635 5632 5629 5625 5622 5619 5615 5610 5605 5600 5596 5592 5588 5584 5578 5573 5569 5565 5562 5558 5553 5548 5543 5538 5534 5529 5525 5520
5655 5654 5653 5652 5651 5650 5648 5646 5645 5643 5641 5638 5635 5632 5629 5625 5621 5617 5615 5613 5608 5603 5598 5594 5591 5587 5582 5577 5572 5567 5562 5559 5555 5550 5545 5540 5535 5531 5526 5521 5517 5513
5648 5647 5646 5645 5644 5642 5640 5638 5637 5634 5633 5630 5627 5625 5621 5619 5615 5611 5608 5606 5601 5596 5592 5587 5584 5581 5576 5571 5565 5560 5556 5552 5548 5544 5538 5533 5528 5523 5518 5514 5510 5506
5641 5639 5638 5637 5635 5634 5632 5630 5628 5626 5624 5621 5619 5617 5614 5610 5608 5606 5603 5600 5594 5589 5584 5580 5576 5574 5570 5565 5559 5555 5550 5546 5542 5537 5532 5527 5521 5515 5510 5507 5503 5500
5632 5631 5630 5628 5627 5626 5623 5621 5620 5617 5615 5613 5610 5608 5606 5603 5599 5597 5596 5593 5588 5583 5577 5571 5568 5567 5564 5560 5555 5551 5546 5541 5536 5531 5526 5521 5515 5510 5504 5500 5496 5492
5623 5622 5621 5620 5619 5618 5615 5613 5611 5609 5607 5605 5602 5600 5598 5595 5591 5589 5588 5585 5582 5577 5571 5565 5562 5560 5558 5553 5549 5545 5540 5536 5530 5524 5519 5514 5510 5504 5499 5494 5489 5485
5615 5613 5612 5612 5611 5609 5607 5605 5603 5601 5599 5597 5594 5592 5589 5587 5584 5581 5578 5575 5574 5570 5565 5559 5556 5553 5551 5547 5543 5538 5534 5530 5525 5519 5514 5508 5504 5499 5493 5488 5484 5479
5606 5606 5604 5602 5601 5600 5598 5597 5595 5594 5591 5589 5587 5584 5582 5579 5576 5573 5570 5567 5566 5563 5557 5553 5549 5547 5545 5541 5536 5532 5528 5524 5519 5513 5508 5503 5498 5493 5487 5483 5480 5474
5599 5598 5596 5593 5592 5590 5589 5589 5587 5586 5584 5582 5580 5576 5574 5572 5568 5565 5563 5561 5560 5557 5551 5547 5543 5541 5539 5534 5530 5525 5521 5517 5512 5507 5502 5496 5491 5486 5482 5479 5475 5470
5593 5591 5589 5586 5584 5582 5581 5581 5579 5578 5576 5574 5572 5569 5567 5565 5562 5560 5558 5556 5553 5550 5545 5540 5537 5535 5532 5527 5522 5518 5514 5510 5505 5499 5495 5489 5484 5481 5477 5474 5470 5465
5589 5586 5583 5580 5577 5575 5574 5573 5572 5570 5568 5566 5564 5562 5560 5558 5556 5554 5553 5550 5546 5543 5539 5534 5530 5527 5525 5520 5515 5512 5508 5503 5498 5492 5487 5482 5478 5474 5471 5468 5464 5460
5585 5583 5579 5574 5571 5569 5567 5566 5565 5563 5561 5559 5557 5556 5554 5552 5550 5548 5546 5542 5539 5536 5532 5528 5523 5520 5518 5514 5509 5506 5501 5496 5491 5486 5481 5476 5471 5468 5465 5461 5458 5454
5579 5577 5574 5570 5567 5565 5562 5560 5558 5556 5554 5552 5551 5551 5548 5545 5543 5540 5537 5534 5532 5530 5527 5523 5517 5513 5511 5507 5503 5500 5496 5491 5486 5480 5475 5470 5466 5462 5458 5454 5450 5447
5573 5571 5568 5565 5562 5560 5558 5555 5552 5550 5548 5545 5544 5544 5541 5538 5535 5532 5529 5526 5524 5521 5519 5516 5511 5507 5504 5501 5497 5494 5490 5486 5481 5475 5469 5464 5460 5456 5451 5447 5443 5440
5568 5565 5562 5560 5557 5554 5552 5550 5547 5544 5541 5539 5537 5535 5532 5530 5527 5525 5521 5518 5515 5513 5510 5507 5504 5500 5497 5494 5491 5488 5485 5480 5475 5471 5466 5460 5455 5450 5446 5441 5437 5433